Location: Pasarilla del Rebollar
(40.6790°N, 5.0062°W)
Time: 12:05:44
(UTC+00:00)

ALOS - Pass Details

Date: 22 April 2026
Orbit: 660 x 663 km, 98.1° (Epoch: 15 May)

Event Time Altitude Azimuth Distance (km) Brightness Sun altitude
Rises 03:49:54 0° 4° (N) 3,001 6.1 -18.1°
Reaches altitude 10° 03:52:16 10° 355° (N) 2,084 5.1 -17.7°
Maximum altitude 03:56:24 36° 290° (WNW) 1,048 2.9 -17.1°
Enters shadow 03:57:42 30° 255° (WSW) 1,190 3.0 -16.9°
